[[{"header":{"parameterUnit":"m.s-1","parameterCategory":1,"la1":30.2991,"la2":30.254,"lo1":-89.0895,"lo2":-89.0444,"dy":0.0017,"dx":0.0017,"nx":28,"ny":28,"refTime":"2025-07-06T21:00:00:Z","depth":0,"parameterNumber":2,"parameterNumberName":"U-component_of_WINDS"},"data":[0,0,0,0,0,0,0,0,0,0,0,0,0,0,0,0,0,0,0,0,0,0,0,0,0,0,0,0,0,0,0,0,0,0,0,0,0,0,0,0,0,0,0,0,0,0,0,0,0,0,0,0,0,0,0,0,0,0,1.205,1.2051,0,1.2168,1.2169,1.2171,1.2205,1.2205,1.2204,1.2204,1.2325,1.2329,1.2333,0,0,0,0,0,0,0,0,0,0,0,0,0,1.1853,1.1857,1.205,1.2051,1.2053,1.2168,1.2169,1.2171,1.2206,1.2205,1.2204,1.2203,1.2324,1.2329,1.2333,0,0,0,0,0,0,0,0,0,0,0,0,0,1.1952,1.1858,1.2049,1.2084,1.2088,1.2167,1.2169,1.2171,1.2206,1.2205,1.2204,1.2203,1.2323,1.2328,1.2334,1.2388,0,0,1.2351,1.2354,0,0,0,0,0,0,0,0,1.1946,1.1959,1.2077,1.2082,1.2086,1.2171,1.2145,1.2244,1.2206,1.2161,1.2204,1.2203,1.2275,1.2284,1.2309,1.2393,1.2399,1.2352,1.2355,1.2358,1.2359,0,0,0,0,0,0,0,1.1939,1.1954,1.2097,1.2079,1.2085,1.2093,1.2106,1.2164,1.2222,1.2165,1.2168,1.2181,1.2277,1.2303,1.2312,1.24,1.2352,1.2357,1.236,1.2362,1.2533,1.2534,0,0,0,0,0,0,1.1926,1.1948,1.2093,1.21,1.2012,1.2097,1.2112,1.2145,1.2221,1.2232,1.2182,1.2182,1.2294,1.2305,1.2316,1.2383,1.2358,1.2363,1.2366,1.2532,1.2533,1.2534,0,0,0,0,0,0,1.1922,1.1939,1.2088,1.2025,1.2044,1.2102,1.2138,1.2148,1.2174,1.2234,1.2244,1.2198,1.2293,1.2308,1.2369,1.2388,1.2366,1.2371,1.2531,1.2532,1.2534,1.2517,0,0,0,0,0,0,1.1916,1.1937,1.1959,1.2025,1.2048,1.2139,1.214,1.2151,1.2183,1.2185,1.2252,1.2262,1.2294,1.236,1.2375,1.2395,1.2375,1.2529,1.2531,1.2533,1.2517,1.2518,1.252,0,0,0,0,0,1.1909,1.195,1.196,1.1977,1.2076,1.214,1.2153,1.2189,1.2185,1.2206,1.2245,1.226,1.2383,1.2366,1.2383,1.2405,1.2528,1.2531,1.2533,1.2516,1.2518,1.252,0,0,0,0,0,0,1.1885,1.196,1.1971,1.2035,1.2081,1.2146,1.2175,1.219,1.2239,1.2239,1.2281,1.2296,1.2353,1.2386,1.2365,1.246,1.2456,1.2462,1.2437,1.244,1.2441,1.2432,1.238,0,0,0,0,0,1.1887,1.1934,1.1996,1.2046,1.2068,1.2117,1.2147,1.217,1.222,1.224,1.2283,1.233,1.238,1.2412,1.2461,1.2521,1.2535,1.2544,1.2546,1.2547,1.2552,1.2584,1.2589,1.2542,1.2542,1.2542,0,0,1.1892,1.1938,1.1965,1.2042,1.2081,1.2127,1.2134,1.2183,1.2218,1.2247,1.2307,1.234,1.2396,1.2456,1.2485,1.2485,1.2567,1.255,1.2551,1.2555,1.2587,1.2592,1.2595,1.2544,1.2544,1.2544,0,0,1.1925,1.1965,1.201,1.2048,1.2106,1.2138,1.2148,1.2211,1.2234,1.2294,1.2317,1.2358,1.2443,1.2481,1.2512,1.2556,1.2571,1.2571,1.2579,1.2611,1.2614,1.2618,1.2633,1.2638,1.2575,1.2575,1.2575,0,1.1924,1.1995,1.2032,1.2079,1.2112,1.214,1.2185,1.222,1.2291,1.2313,1.2311,1.2416,1.2456,1.2525,1.2535,1.256,1.2572,1.2564,1.2611,1.2615,1.2619,1.2633,1.2639,1.2575,1.2575,1.2575,1.2575,0,1.199,1.2039,1.2068,1.2135,1.2171,1.2217,1.226,1.2292,1.2311,1.2343,1.2403,1.2452,1.251,1.2528,1.2548,1.2599,1.2597,1.2603,1.2599,1.2622,1.2636,1.2642,1.2574,1.2574,1.2574,1.2575,0,0,1.2013,1.2097,1.2107,1.2137,1.2202,1.224,1.2287,1.2343,1.2369,1.2416,1.2456,1.2526,1.2531,1.2565,1.259,1.2617,1.2647,1.2619,1.2621,1.2622,1.2705,1.27,1.2706,1.2657,1.2659,1.266,1.27,0,1.2053,1.2138,1.2171,1.224,1.2284,1.231,1.2351,1.2394,1.2425,1.2466,1.25,1.2548,1.2552,1.2572,1.2601,1.2638,1.2665,1.2635,1.2694,1.2696,1.2679,1.2714,1.2709,1.2745,1.2706,1.2707,1.2708,0,1.2111,1.2158,1.2231,1.2288,1.2308,1.2344,1.2397,1.2437,1.2487,1.2507,1.2544,1.2566,1.2615,1.2608,1.2676,1.2655,1.2681,1.2703,1.2705,1.2712,1.2703,1.2721,1.2758,1.2763,1.2717,1.2716,1.2716,0,1.2119,1.22,1.2254,1.2279,1.2347,1.2372,1.2401,1.245,1.2481,1.2527,1.2547,1.2599,1.2627,1.2666,1.2701,1.2693,1.2765,1.2762,1.2783,1.2782,1.2797,1.2796,1.2838,1.2814,1.2814,1.2814,1.2814,0,1.216,1.2204,1.2258,1.2291,1.234,1.2377,1.2424,1.2456,1.2498,1.2537,1.2563,1.2599,1.2643,1.2684,1.2712,1.2763,1.2776,1.2793,1.28,1.2791,1.2788,1.2809,1.2807,1.2816,1.2815,1.2815,1.2815,0,1.2177,1.2216,1.2276,1.2335,1.2351,1.2384,1.2434,1.2467,1.2498,1.2546,1.256,1.2608,1.2658,1.2697,1.2762,1.2781,1.2834,1.2842,1.2818,1.2821,1.284,1.2837,1.2896,1.2905,1.2875,1.2876,1.2876,0,1.2201,1.2235,1.2297,1.2325,1.2354,1.2399,1.243,1.2467,1.2498,1.2556,1.2581,1.2633,1.2676,1.2754,1.2795,1.2844,1.2853,1.287,1.2861,1.285,1.2853,1.285,1.2853,1.2871,1.2872,1.2872,1.2872,0,1.2239,1.2256,1.23,1.235,1.2386,1.2428,1.247,1.2491,1.2535,1.2569,1.262,1.2653,1.2719,1.2769,1.2822,1.2853,1.2869,1.2874,1.2882,1.2873,1.2856,1.2864,1.282,1.2873,1.2873,1.2873,1.2873,1.2873,1.226,1.229,1.2338,1.2386,1.2421,1.2459,1.2492,1.2526,1.2569,1.2625,1.2644,1.2696,1.2743,1.2816,1.2846,1.2887,1.2888,1.2899,1.2902,1.2904,1.2902,1.285,1.2897,1.2897,1.2897,1.2897,1.2897,0,1.2298,1.233,1.2373,1.243,1.2467,1.2479,1.2525,1.2555,1.2601,1.2643,1.2684,1.2741,1.279,1.2834,1.2884,1.2908,1.2917,1.292,1.2918,1.2925,1.2899,1.2887,1.2912,1.2912,1.2912,1.2912,1.2912,1.2912,1.2322,1.2374,1.2396,1.2465,1.2496,1.2547,1.2572,1.2607,1.264,1.2703,1.2743,1.2771,1.2813,1.2866,1.2911,1.2922,1.294,1.294,1.2954,1.2929,1.2927,1.2925,1.2914,1.2944,1.2944,1.2976,1.2977,1.2977]},{"header":{"parameterUnit":"m.s-1","parameterCategory":1,"la1":30.2991,"la2":30.254,"lo1":-89.0895,"lo2":-89.0444,"dy":0.0017,"dx":0.0017,"nx":28,"ny":28,"refTime":"2025-07-06T21:00:00:Z","depth":0,"parameterNumber":3,"parameterNumberName":"V-component_of_WINDS"},"data":[0,0,0,0,0,0,0,0,0,0,0,0,0,0,0,0,0,0,0,0,0,0,0,0,0,0,0,0,0,0,0,0,0,0,0,0,0,0,0,0,0,0,0,0,0,0,0,0,0,0,0,0,0,0,0,0,0,0,4.8976,4.8975,0,4.8902,4.8901,4.8901,4.8804,4.8803,4.8801,4.88,4.8723,4.8723,4.8722,0,0,0,0,0,0,0,0,0,0,0,0,0,4.9031,4.9031,4.8976,4.8975,4.8974,4.8902,4.8901,4.89,4.8804,4.8803,4.8801,4.8799,4.8724,4.8723,4.8722,0,0,0,0,0,0,0,0,0,0,0,0,0,4.8987,4.903,4.8976,4.8917,4.8911,4.8903,4.8901,4.89,4.8805,4.8802,4.88,4.8798,4.8724,4.8723,4.8722,4.8765,0,0,4.872,4.8719,0,0,0,0,0,0,0,0,4.899,4.8986,4.8927,4.8921,4.8915,4.886,4.8893,4.8855,4.8805,4.8845,4.8799,4.8797,4.8771,4.8766,4.8757,4.8761,4.8758,4.872,4.8719,4.8719,4.8719,0,0,0,0,0,0,0,4.8993,4.8988,4.8947,4.8926,4.8919,4.8894,4.8885,4.8885,4.8822,4.8842,4.8834,4.8827,4.8767,4.8758,4.8755,4.8757,4.872,4.8719,4.8718,4.8718,4.879,4.8792,0,0,0,0,0,0,4.9005,4.8991,4.8949,4.8944,4.8947,4.8895,4.8885,4.888,4.8822,4.8811,4.8829,4.8823,4.8761,4.8756,4.8752,4.8796,4.8719,4.8718,4.8718,4.8787,4.879,4.8793,0,0,0,0,0,0,4.9007,4.9002,4.8952,4.8966,4.8958,4.8897,4.8892,4.888,4.8871,4.8813,4.8801,4.8832,4.8759,4.8753,4.8762,4.8792,4.8718,4.8717,4.8785,4.8788,4.8792,4.8887,0,0,0,0,0,0,4.9009,4.9003,4.9019,4.8967,4.8957,4.8964,4.8893,4.888,4.887,4.8861,4.8812,4.8802,4.8757,4.8764,4.8761,4.879,4.8716,4.8782,4.8786,4.879,4.888,4.8893,4.8904,0,0,0,0,0,4.9011,4.9049,4.9021,4.9016,4.8976,4.8966,4.896,4.8908,4.8873,4.8888,4.885,4.8803,4.879,4.8765,4.8762,4.8791,4.8779,4.8785,4.879,4.8875,4.8891,4.8903,0,0,0,0,0,0,4.9106,4.9041,4.9009,4.9031,4.9005,4.895,4.8967,4.8926,4.8909,4.8901,4.8836,4.8826,4.8843,4.8817,4.8792,4.8828,4.8777,4.8782,4.8843,4.8857,4.8869,4.8874,4.8716,0,0,0,0,0,4.913,4.9128,4.9071,4.9096,4.9085,4.9029,4.9022,4.8984,4.8954,4.8942,4.8905,4.8877,4.8866,4.8861,4.8848,4.8877,4.8864,4.8895,4.8906,4.8916,4.8921,4.8933,4.8945,4.8811,4.8811,4.881,0,0,4.9179,4.9143,4.9146,4.9114,4.9089,4.9088,4.902,4.9021,4.9019,4.8942,4.8948,4.892,4.8885,4.8904,4.891,4.8883,4.8955,4.8923,4.8931,4.893,4.894,4.8952,4.8964,4.8814,4.8814,4.8813,0,0,4.9267,4.924,4.9257,4.9234,4.9197,4.9159,4.9164,4.9115,4.9093,4.9098,4.904,4.9036,4.902,4.8996,4.8982,4.9061,4.9017,4.9059,4.9119,4.9131,4.9142,4.9151,4.9178,4.9188,4.9064,4.9064,4.9064,0,4.9332,4.9328,4.9272,4.9276,4.9264,4.9195,4.9211,4.9191,4.9152,4.9144,4.9115,4.9092,4.9063,4.9075,4.9094,4.9086,4.9087,4.9063,4.9145,4.9154,4.9161,4.9186,4.9196,4.9069,4.9069,4.9068,4.9068,0,4.9409,4.9407,4.9425,4.9389,4.9379,4.939,4.9335,4.9331,4.9294,4.9259,4.9264,4.9228,4.9205,4.9205,4.9169,4.9212,4.9196,4.9157,4.9105,4.918,4.9202,4.9211,4.9077,4.9075,4.9073,4.9072,0,0,4.9554,4.9487,4.9494,4.9477,4.9431,4.9428,4.9435,4.9414,4.9411,4.9386,4.939,4.9377,4.934,4.9325,4.9285,4.9296,4.9359,4.9255,4.9254,4.9275,4.9402,4.943,4.9442,4.933,4.9332,4.9333,4.9404,0,4.9632,4.9641,4.9591,4.9613,4.9609,4.9543,4.955,4.9522,4.949,4.9482,4.9446,4.9437,4.939,4.938,4.9388,4.935,4.9384,4.9344,4.9331,4.9332,4.9341,4.9454,4.9485,4.9554,4.9413,4.9414,4.9415,0,4.9724,4.9704,4.9726,4.9679,4.9675,4.9682,4.9657,4.9651,4.9618,4.9593,4.9576,4.953,4.9533,4.9485,4.9487,4.9461,4.9453,4.9433,4.9435,4.943,4.9377,4.9451,4.9575,4.9585,4.9428,4.9427,4.9426,0,4.9826,4.9805,4.9815,4.9802,4.9747,4.9753,4.973,4.9695,4.9685,4.9663,4.9656,4.9635,4.9624,4.9608,4.9558,4.9528,4.9565,4.9513,4.9544,4.9545,4.9554,4.9554,4.9676,4.9552,4.9551,4.9551,4.9551,0,4.9918,4.9933,4.986,4.9866,4.9881,4.9823,4.984,4.981,4.9779,4.9778,4.972,4.9719,4.9654,4.9646,4.9606,4.9613,4.9609,4.9588,4.9577,4.9592,4.9595,4.9585,4.9579,4.9554,4.9553,4.9553,4.9552,0,5.0034,4.9986,4.9992,4.9939,4.9926,4.994,4.9894,4.9897,4.9861,4.986,4.9856,4.98,4.9787,4.9736,4.9711,4.9685,4.9704,4.9684,4.9715,4.9708,4.9741,4.9739,4.9861,4.9873,4.9742,4.9744,4.9745,0,5.0095,5.0105,5.0054,5.0049,5.0028,5.0021,5.0011,4.9954,4.9945,4.9908,4.9915,4.9898,4.9881,4.9864,4.982,4.98,4.9778,4.9822,4.9775,4.9789,4.9777,4.9776,4.9776,4.9832,4.9834,4.9835,4.9837,0,5.0207,5.0183,5.017,5.0149,5.0138,5.0119,5.0096,5.0095,5.0031,5.0024,5.0011,4.9998,4.9972,4.9956,4.9929,4.9904,4.9859,4.9852,4.9858,4.9873,4.989,4.988,4.9742,4.9849,4.9848,4.9847,4.9846,4.9846,5.0296,5.0302,5.0267,5.0254,5.0231,5.0211,5.021,5.0175,5.0163,5.0138,5.0105,5.0096,5.0061,5.002,4.9999,4.999,4.9965,4.9974,4.9976,4.9979,4.9986,4.9893,4.9985,4.9984,4.9984,4.9984,4.9983,0,5.0405,5.0379,5.0368,5.0338,5.0328,5.0288,5.026,5.0254,5.0246,5.0218,5.0203,5.0187,5.017,5.0125,5.0104,5.0105,5.0084,5.0101,5.01,5.0095,5.001,5.0006,5.0119,5.0119,5.0119,5.0119,5.0119,5.0119,5.046,5.0467,5.0439,5.0433,5.0407,5.0398,5.0385,5.0366,5.0343,5.0328,5.0314,5.0285,5.0249,5.0225,5.0207,5.0194,5.0188,5.0212,5.0192,5.0114,5.0101,5.0088,5.0085,5.0212,5.0212,5.0277,5.0278,5.0279]}]]